THOR ABLESTAR DEB, 549

Orbit data source: Space-Track

THOR ABLESTAR DEB, 549 is space debris in LEO originally from a launch on Thu, 29 Jun 1961 UTC launched from the Air Force Eastern Test Range (AFETR). Debris objects in space refer to the collection of defunct objects orbiting the Earth. Examples of debris include non-operational satellites, rocket bodies, and fragments generated from explosions, collisions, or faulty payload assembly.

Loading next visibility...
THOR ABLESTAR DEB details
Identifier
549, 1961-015GJ
Orbit
LEO
Last TLE update23 hours ago
Origin
Flag of USUSAF SSD (US)
ManufacturerUnknown
MissionSpacecraft
Bus & MotorUnknown
MassUnknown
Launch date (UTC)
1961-06-29 (64 years ago)
Launch vehicleUnknown
Launch site
Air Force Eastern Test Range (AFETR)
Object type
Payload
Rocket body
Debris
Shape & HBRUnknown
Radar Cross SectionSmall (<0.1 m²)

Expand to show TLE details & history

TLE from 23 hours ago
0 THOR ABLESTAR DEB
1   549U 61015GJ  25037.14543627  .00000104  00000-0  29042-3 0  9995
2   549  66.6941 284.8276 0220005 274.9222 245.4117 13.36278388 97016
Epoch: 2025-02-06T03:29Z
Definitive object data (Epoch: 2025-02-06T03:29:25.693Z)
Latitude20.07891°
Longitude-93.06942°
Altitude1,196.432 km
Speed7.223 km/s
True Right ascension06h 23m 15s
True Declination19° 58' 29"
Sunlit
Object was in full shadow at TLE epoch
Visualization TLE readout
Latitude34.40344°
Longitude-103.29162°
Altitude1,235.688 km
Speed7.188 km/s
Apparent Right ascension07h 58m 00s
Apparent Declination6° 41' 02"
Sunlit
Object is in full shadow
Visualization observer readout
Local Sidereal Time04:55:04
Azimuth116.564° SE
Elevation37.331°
Doppler factor1
Orbital elements
Apogee altitude1,286.62 km
Perigee altitude956.623 km
Semi-major axis7,499.758 km
Eccentricity0.0220005
Inclination66.6941°
RAAN284.8276°
Arg. of periapsis274.9222°
True anomaly243.14577°
Mean anomaly245.4117°
Eccentric anomaly244.27609°
Mean motion3.34174 °/min
BSTAR0.00029042
Orbital period107.73 mins
Loading maneuver chart data...

THOR ABLESTAR DEB Visibility forecast

Observer location: undefined°, undefined

Span
Click to sort rows by Start time (UTC) header in descending order
Start Az.
Max El. time (UTC)
Max El. Az.
Max El.
End time (UTC)
End Az.
4 mins2025-02-07 02:45:37.606Z116.936° SE2025-02-07 02:45:37.606Z116.936° SE31.116°2025-02-07 02:49:37.606Z133.984° SE
11 mins2025-02-07 04:27:37.606Z306.72° NW2025-02-07 04:32:37.606Z260.821° W26.566°2025-02-07 04:38:37.606Z200.942° SSW
10 mins2025-02-07 16:31:37.606Z147.186° SSE2025-02-07 16:35:37.606Z105.036° ESE24.721°2025-02-07 16:41:37.606Z51.703° ENE
13 mins2025-02-07 18:20:37.606Z226.839° WSW2025-02-07 18:25:37.606Z286.925° WNW41.441°2025-02-07 18:33:37.606Z23.875° NE
8 mins2025-02-07 20:15:37.606Z298.946° NW2025-02-07 20:18:37.606Z325.194° NNW16.926°2025-02-07 20:23:37.606Z5.407° NNE
4 mins2025-02-08 00:07:37.606Z13.006° NNE2025-02-08 00:09:37.606Z28.906° NE12.744°2025-02-08 00:11:37.606Z44.55° NE
13 mins2025-02-08 01:56:37.606Z346.025° N2025-02-08 02:02:37.606Z49.722° ENE33.923°2025-02-08 02:09:37.606Z119.585° SE
|